Regional Weather Roundup
Issued by NWS

Home | Current Version | Previous Version | Graphics & Text | Print | Product List | Glossary On
Versions: 1 2 3 4 5 6 7 8 9 10 11 12 13 14 15 16 17 18 19 20 21 22 23 24 25 26 27 28 29 30 31 32 33 34 35 36 37 38 39 40 41 42 43 44 45 46 47 48 49 50
000
ASUS43 KIND 022209
RWRIN

WEATHER ROUNDUP FOR INDIANA
NATIONAL WEATHER SERVICE INDIANAPOLIS IN
500 PM EST FRI DEC 02 2016

NOTE: "FAIR" INDICATES FEW OR NO CLOUDS BELOW 12,000 FEET WITH NO
SIGNIFICANT WEATHER AND/OR OBSTRUCTIONS TO VISIBILITY.

* - STATION DOES NOT REPORT WEATHER SUCH AS PRECIPITATION OR FOG.

+ - STATION NOT QUALITY CONTROLLED BY THE NATIONAL WEATHER SERVICE.
    USE DATA WITH CAUTION...ESPECIALLY DEWPOINT AND RELATIVE
    HUMIDITY OBSERVATIONS.

INZ001>003-010>013-019-020-022300-
NORTHWEST INDIANA

CITY           SKY/WX    TMP DP  RH WIND       PRES   REMARKS
GARY /AIRPORT/ CLOUDY    41  32  70 W9        30.23R
KNOX *+        CLOUDY    37  16  41 W6        30.22R
LA PORTE +     CLOUDY    39  35  87 N10       30.22R
MICHIGAN CITY+ CLOUDY    37  30  75 NW8       30.22S
MONTICELLO +   CLOUDY    38  28  66 W6        30.23R
RENSSELAER +     N/A     39  34  81 W7        30.24R
VALPARAISO     CLOUDY    39  31  72 W6        30.22R

$$

LMZ046-743>745-022300-
SOUTHERN LAKE MICHIGAN

STATION/POSITION TIME  TEMP    WIND        PRES    WAVE
                       AIR SEA DIR/SP/G            HT
                 (UTC) (F)     (DEG/KT/KT) (MB)    (FT)
BURNS HARBOR     2140   40     320/ 12/ 14 1023.7R
MICHIGAN CITY    2110   38     320/ 18/ 20   N/A

$$

INZ004-005-014>016-021>024-022300-
NORTH CENTRAL INDIANA

CITY           SKY/WX    TMP DP  RH WIND       PRES   REMARKS
ELKHART        CLOUDY    37  27  65 NW5       30.19S
GOSHEN         CLOUDY    37  27  67 NW8       30.20R
LOGANSPORT +   CLOUDY    37  32  81 W6        30.23R
PERU/GRISSOM   CLOUDY    37  34  87 W8        30.21R
ROCHESTER +    CLOUDY    41  34  75 W6        30.22R
SOUTH BEND     CLOUDY    36  29  75 N9        30.21R
WARSAW +       CLOUDY    36  32  87 W6        30.21R

$$

INZ006>009-017-018-025>027-022300-
NORTHEAST INDIANA

CITY           SKY/WX    TMP DP  RH WIND       PRES   REMARKS
ANGOLA *+      CLOUDY    36  28  75 NW10      30.17R
AUBURN +       CLOUDY    37  32  81 NW7       30.19R
FORT WAYNE     CLOUDY    38  30  73 W8        30.20R
HUNTINGTON +   CLOUDY    38  32  79 W8        30.20R
KENDALLVILLE + CLOUDY    36  28  71 NW8       30.18R

$$

INZ028-029-035-036-043>045-051>053-022300-
WEST CENTRAL INDIANA

CITY           SKY/WX    TMP DP  RH WIND       PRES   REMARKS
CRAWFORDSVL +  CLOUDY    37  33  84 W6        30.25S
GREENCASTLE +  CLOUDY    37  34  87 W3        30.26S
LAFAYETTE      LGT RAIN  37  33  85 W8        30.25R
TERRE HAUTE    CLOUDY    41  30  65 W9        30.27R

$$

INZ030>032-037>040-046>048-054>057-064-065-022300-
CENTRAL INDIANA

CITY           SKY/WX    TMP DP  RH WIND       PRES   REMARKS
CP ATTERBURY + CLOUDY    41  30  65 NW6       30.25F
COLUMBUS       CLOUDY    39  32  75 W6        30.26S
FISHERS *+     CLOUDY    37  34  87 W7        30.24R
FRANKFORT +    CLOUDY    40  34  77 W10       30.25S
GREENWOOD *+   CLOUDY    40  32  74 W8        30.25S
INDIANAPOLIS   CLOUDY    40  32  73 W10       30.24S
-EAGLE CREEK   CLOUDY    40  32  73 W8        30.24R
KOKOMO +       CLOUDY    38  32  79 W9        30.23R
MARION +       CLOUDY    36  33  87 W9        30.22S FOG
MT COMFORT *+  CLOUDY    39  30  70 W9G16     30.24S
SHELBYVILLE    CLOUDY    40  31  70 W8        30.24R
ZIONSVILLE +   CLOUDY    37  32  81 W10       30.25R

$$

INZ033-034-041-042-049-050-058-059-022300-
EAST CENTRAL INDIANA

CITY           SKY/WX    TMP DP  RH WIND       PRES   REMARKS
MUNCIE         CLOUDY    37  32  82 NW8       30.23R

$$

INZ060-061-067>069-081>083-085>088-022300-
SOUTHWEST INDIANA

CITY           SKY/WX    TMP DP  RH WIND       PRES   REMARKS
EVANSVILLE     PTCLDY    44  30  57 NW7       30.29R
HUNTINGBURG *+ CLEAR     42  31  64 NW7       30.27S
WASHINGTON +   CLOUDY    41  33  71 NW8       30.28R

$$

INZ062-063-066-070>080-084-089>092-022300-
SOUTH CENTRAL AND SOUTHEAST INDIANA

CITY           SKY/WX    TMP DP  RH WIND       PRES   REMARKS
BLOOMINGTON    CLOUDY    41  29  62 NW7       30.25S
MADISON *+     CLOUDY    39  30  70 CALM      30.27S
NORTH VERNON + CLOUDY    41  36  81 W7        30.26R
SEYMOUR +      CLOUDY    43  30  61 W5        30.26S

$$




USA.gov is the U.S. government's official web portal to all federal, state and local government web resources and services.